N5TM-4 Weather Reports


time (UTC)temp
C
wind
direction
speed
KPH
gust
KPH
rain 1hr
cm
rain 24hr
cm
rain mn
cm
humidity
%
barometer
mb
20260504190016 27 222 4.8 11.3 0.00 0.00 0.00 51 1013.7
20260504185515 27 207 1.6 16.1 0.00 0.00 0.00 52 1013.7
20260504185014 27 186 4.8 16.1 0.00 0.00 0.00 54 1013.9
20260504184515 27 196 6.4 17.7 0.00 0.00 0.00 53 1014.0
20260504184015 27 198 1.6 20.9 0.00 0.00 0.00 54 1014.0
20260504183513 27 171 11.3 20.9 0.00 0.00 0.00 52 1014.0
20260504183032 27 153 9.7 19.3 0.00 0.00 0.00 53 1014.0
20260504182512 27 186 11.3 19.3 0.00 0.00 0.00 52 1014.1
20260504182011 27 196 9.7 19.3 0.00 0.00 0.00 51 1014.0
20260504181522 27 155 4.8 22.5 0.00 0.00 0.00 52 1014.2
20260504181011 28 178 9.7 22.5 0.00 0.00 0.00 49 1014.3
20260504180515 28 203 6.4 24.1 0.00 0.00 0.00 49 1014.3
20260504180010 27 181 8.0 24.1 0.00 0.00 0.00 49 1014.3
20260504175508 28 256 3.2 17.7 0.00 0.00 0.00 50 1014.5
20260504175007 27 190 6.4 17.7 0.00 0.00 0.00 51 1014.7
20260504174507 27 183 3.2 16.1 0.00 0.00 0.00 51 1014.7
20260504174006 27 338 4.8 16.1 0.00 0.00 0.00 53 1014.8
20260504173506 27 187 9.7 17.7 0.00 0.00 0.00 54 1014.9
20260504173004 26 161 4.8 20.9 0.00 0.00 0.00 55 1014.8
20260504172504 26 178 8.0 20.9 0.00 0.00 0.00 56 1014.8
20260504172002 26 195 4.8 22.5 0.00 0.00 0.00 55 1015.1
20260504171501 26 169 8.0 16.1 0.00 0.00 0.00 55 1015.2
20260504171003 26 223 3.2 16.1 0.00 0.00 0.00 54 1015.3
20260504170601 26 174 4.8 17.7 0.00 0.00 0.00 53 1015.2
20260504170109 26 147 6.4 24.1 0.00 0.00 0.00 53 1015.3
20260504151049 25 161 8.0 16.1 0.00 0.00 0.00 58 1016.0
20260504150549 25 167 3.2 19.3 0.00 0.00 0.00 59 1016.1
20260504141040 22 156 3.2 9.7 0.00 0.00 0.00 63 1016.1
20260504140539 22 181 4.8 8.0 0.00 0.00 0.00 63 1016.2
20260504130523 17 150 1.6 4.8 0.00 0.00 0.00 75 1016.1
20260504110514 14 180 0.0 0.0 0.00 0.00 0.00 83 1015.7
20260504100509 14 180 0.0 1.6 0.00 0.00 0.00 82 1016.0
20260504081601 15 180 0.0 3.2 0.00 0.00 0.00 77 1016.6
20260504081101 15 180 0.0 4.8 0.00 0.00 0.00 78 1016.5
20260504080559 15 180 1.6 4.8 0.00 0.00 0.00 78 1016.7
20260504050531 16 163 0.0 3.2 0.00 0.00 0.00 69 1018.8
20260504045531 16 163 0.0 1.6 0.00 0.00 0.00 69 1018.7
20260504045029 17 163 0.0 1.6 0.00 0.00 0.00 69 1018.6
20260504044537 17 163 0.0 0.0 0.00 0.00 0.00 68 1018.7
20260504044034 17 163 0.0 0.0 0.00 0.00 0.00 69 1018.7
20260504043529 17 163 0.0 0.0 0.00 0.00 0.00 68 1018.7
20260504043029 17 163 0.0 0.0 0.00 0.00 0.00 67 1018.8
20260504042528 17 163 0.0 0.0 0.00 0.00 0.00 66 1018.8
20260504042028 17 163 0.0 0.0 0.00 0.00 0.00 66 1018.8
20260504041528 17 163 0.0 0.0 0.00 0.00 0.00 65 1018.9
20260504041028 17 163 0.0 0.0 0.00 0.00 0.00 65 1018.9
20260504040528 17 163 0.0 0.0 0.00 0.00 0.00 65 1018.8
20260504040028 17 163 0.0 1.6 0.00 0.00 0.00 64 1018.7
20260504035531 17 163 0.0 4.8 0.00 0.00 0.00 64 1018.8
20260504035029 18 163 1.6 4.8 0.00 0.00 0.00 64 1018.7
20260504034544 18 163 0.0 4.8 0.00 0.00 0.00 63 1018.7
20260504034028 18 163 1.6 4.8 0.00 0.00 0.00 62 1018.7
20260504033527 18 163 1.6 8.0 0.00 0.00 0.00 62 1018.8
20260504033027 18 163 3.2 8.0 0.00 0.00 0.00 61 1018.9
20260504032527 18 163 1.6 8.0 0.00 0.00 0.00 61 1018.8
20260504032028 18 162 1.6 6.4 0.00 0.00 0.00 60 1018.8
20260504031527 18 162 1.6 4.8 0.00 0.00 0.00 60 1018.7
20260504031026 18 158 1.6 9.7 0.00 0.00 0.00 59 1018.7
20260504030527 19 164 3.2 9.7 0.00 0.00 0.00 59 1018.6
20260504030039 19 138 1.6 8.0 0.00 0.00 0.00 59 1018.7
20260504025529 19 187 3.2 8.0 0.00 0.00 0.00 58 1018.6
20260504025027 19 175 3.2 9.7 0.00 0.00 0.00 58 1018.5
20260504024526 19 171 1.6 12.9 0.00 0.00 0.00 57 1018.5
20260504024026 19 167 3.2 12.9 0.00 0.00 0.00 56 1018.5
20260504023526 20 162 4.8 11.3 0.00 0.00 0.00 56 1018.5
20260504023027 20 151 3.2 9.7 0.00 0.00 0.00 56 1018.5
20260504022526 20 179 3.2 9.7 0.00 0.00 0.00 55 1018.4
20260504022026 20 180 1.6 8.0 0.00 0.00 0.00 54 1018.5
20260504021526 20 140 1.6 9.7 0.00 0.00 0.00 54 1018.2
20260504021025 20 162 4.8 12.9 0.00 0.00 0.00 53 1018.2
20260504020525 20 105 6.4 12.9 0.00 0.00 0.00 53 1018.2
20260504020027 20 128 4.8 12.9 0.00 0.00 0.00 52 1018.1
20260504015525 20 165 6.4 12.9 0.00 0.00 0.00 51 1018.1
20260504015025 21 167 6.4 14.5 0.00 0.00 0.00 51 1018.2
20260504014535 21 126 6.4 14.5 0.00 0.00 0.00 51 1018.1
20260504014024 21 178 6.4 14.5 0.00 0.00 0.00 51 1018.2
20260504013524 21 149 6.4 12.9 0.00 0.00 0.00 50 1018.1
20260504013024 21 163 8.0 16.1 0.00 0.00 0.00 50 1018.1
20260504012524 21 170 4.8 16.1 0.00 0.00 0.00 49 1018.0
20260504012024 21 178 8.0 16.1 0.00 0.00 0.00 49 1018.0
20260504011524 21 238 4.8 16.1 0.00 0.00 0.00 49 1018.0
20260504011024 21 165 3.2 11.3 0.00 0.00 0.00 49 1017.9
20260504010523 22 153 4.8 12.9 0.00 0.00 0.00 48 1017.9
20260504010023 22 143 6.4 12.9 0.00 0.00 0.00 48 1017.9
20260504005523 22 163 4.8 14.5 0.00 0.00 0.00 48 1017.9
20260504005023 22 153 4.8 16.1 0.00 0.00 0.00 47 1017.9
20260504004523 22 178 6.4 16.1 0.00 0.00 0.00 47 1017.9
20260504004022 22 195 4.8 14.5 0.00 0.00 0.00 47 1018.1
20260504003522 22 186 6.4 12.9 0.00 0.00 0.00 47 1018.1
20260504003030 22 179 4.8 11.3 0.00 0.00 0.00 47 1018.0
20260504002522 22 158 6.4 16.1 0.00 0.00 0.00 47 1017.9
20260504002022 23 152 8.0 16.1 0.00 0.00 0.00 46 1017.9
20260504001521 23 168 4.8 11.3 0.00 0.00 0.00 46 1017.9
20260504001021 23 168 4.8 16.1 0.00 0.00 0.00 45 1017.8
20260504000522 23 161 4.8 16.1 0.00 0.00 0.00 44 1017.9
20260504000021 23 184 4.8 14.5 0.00 0.00 0.00 43 1017.8
20260503235520 24 173 6.4 12.9 0.00 0.00 0.00 42 1018.0
20260503235023 24 169 6.4 16.1 0.00 0.00 0.00 41 1017.9
20260503234535 24 170 4.8 16.1 0.00 0.00 0.00 41 1017.9
20260503234020 24 136 6.4 16.1 0.00 0.00 0.00 41 1017.9
20260503233522 24 167 8.0 16.1 0.00 0.00 0.00 39 1017.9
20260503233018 25 146 8.0 16.1 0.00 0.00 0.00 39 1018.0
20260503232519 25 186 8.0 16.1 0.00 0.00 0.00 38 1018.1
20260503232017 25 139 8.0 16.1 0.00 0.00 0.00 37 1018.1
20260503231517 25 182 6.4 14.5 0.00 0.00 0.00 37 1018.2
20260503231019 25 152 6.4 16.1 0.00 0.00 0.00 38 1018.2
20260503230517 25 167 8.0 14.5 0.00 0.00 0.00 37 1018.2
20260503230017 25 159 8.0 16.1 0.00 0.00 0.00 34 1018.1
20260503225517 25 148 4.8 16.1 0.00 0.00 0.00 32 1018.1
20260503225019 25 177 6.4 16.1 0.00 0.00 0.00 33 1018.3
20260503224515 25 169 3.2 14.5 0.00 0.00 0.00 33 1018.4
20260503224015 25 297 3.2 14.5 0.00 0.00 0.00 33 1018.4
20260503223514 26 133 6.4 14.5 0.00 0.00 0.00 32 1018.5
20260503223014 26 122 4.8 14.5 0.00 0.00 0.00 31 1018.5
20260503222512 26 173 6.4 14.5 0.00 0.00 0.00 33 1018.4
20260503222011 26 96 3.2 14.5 0.00 0.00 0.00 31 1018.6
20260503221511 26 159 3.2 11.3 0.00 0.00 0.00 32 1018.7
20260503221012 26 165 4.8 12.9 0.00 0.00 0.00 31 1018.8
20260503220516 26 171 6.4 12.9 0.00 0.00 0.00 31 1018.9
20260503220011 26 183 3.2 14.5 0.00 0.00 0.00 32 1018.7
20260503215512 26 166 4.8 14.5 0.00 0.00 0.00 30 1018.8
20260503215010 26 171 6.4 14.5 0.00 0.00 0.00 30 1018.8
20260503214513 26 142 4.8 14.5 0.00 0.00 0.00 31 1018.8
20260503214014 26 167 6.4 17.7 0.00 0.00 0.00 31 1018.8
20260503213508 26 182 4.8 17.7 0.00 0.00 0.00 29 1018.9
20260503213007 26 181 9.7 17.7 0.00 0.00 0.00 30 1019.2
20260503212507 26 150 3.2 12.9 0.00 0.00 0.00 32 1019.2
20260503212006 27 115 3.2 14.5 0.00 0.00 0.00 31 1019.4
20260503211506 27 112 1.6 8.0 0.00 0.00 0.00 30 1019.4
20260503211005 26 79 1.6 14.5 0.00 0.00 0.00 31 1019.5
20260503210505 26 202 3.2 19.3 0.00 0.00 0.00 31 1019.6
20260503210006 26 167 8.0 19.3 0.00 0.00 0.00 30 1019.5
20260503205504 27 289 1.6 11.3 0.00 0.00 0.00 32 1019.6
20260503205004 27 281 1.6 11.3 0.00 0.00 0.00 31 1019.7
20260503204504 26 147 1.6 14.5 0.00 0.00 0.00 33 1019.6
20260503204003 26 155 6.4 14.5 0.00 0.00 0.00 30 1019.9
20260503203505 26 150 3.2 11.3 0.00 0.00 0.00 30 1019.9
20260503203001 27 44 3.2 14.5 0.00 0.00 0.00 30 1020.0
20260503202501 26 145 1.6 14.5 0.00 0.00 0.00 32 1020.0
20260503202101 26 177 6.4 14.5 0.00 0.00 0.00 31 1020.0
20260503201605 26 96 4.8 19.3 0.00 0.00 0.00 33 1020.2
20260503201059 26 159 1.6 19.3 0.00 0.00 0.00 31 1020.3
20260503200559 26 202 9.7 16.1 0.00 0.00 0.00 31 1020.3
20260503200101 27 156 4.8 9.7 0.00 0.00 0.00 33 1020.4
20260503195556 26 169 1.6 9.7 0.00 0.00 0.00 32 1020.5
20260503195057 27 86 4.8 12.9 0.00 0.00 0.00 32 1020.6
20260503194555 27 290 4.8 12.9 0.00 0.00 0.00 33 1020.6
20260503194055 27 60 1.6 9.7 0.00 0.00 0.00 31 1020.7
20260503193554 27 135 4.8 9.7 0.00 0.00 0.00 32 1020.8
20260503193059 26 156 1.6 14.5 0.00 0.00 0.00 32 1020.9
20260503192552 27 167 6.4 14.5 0.00 0.00 0.00 32 1021.0
20260503192052 27 169 4.8 14.5 0.00 0.00 0.00 31 1021.0
20260503191615 27 161 6.4 16.1 0.00 0.00 0.00 31 1021.2
20260503191053 27 148 4.8 16.1 0.00 0.00 0.00 30 1021.2
20260503190552 28 214 3.2 8.0 0.00 0.00 0.00 30 1021.3